Terug naar catalogus

CZ-2C R/B

ActiefPO
NORAD 39625·ROCKET BODY·🇨🇳 China

Gelanceerd Mar 31, 2014 vanaf Jiuquan Satellite Launch Center

Loading…

Volgende Passages (komende 24 uur)

TLE

VersSource: Space-Track

Epoch: Sep 13, 2026, 22:24 UTC

1 39625U 14014B   26256.93367195  .00010626  00000-0  24747-3 0  9991
2 39625  98.3506  25.5482 0062172 337.9619  21.8953 15.40460184684537

Volg CZ-2C R/B in realtime met AllMySat

Download on the App Store